Regional Weather Roundup
Issued by NWS Green Bay, WI

Home | Current Version | Previous Version | Graphics & Text | Print | Product List | Glossary Off
Versions: 1 2 3 4 5 6 7 8 9 10 11 12 13 14 15 16 17 18 19 20 21 22 23 24 25 26 27 28 29 30 31 32 33 34 35 36 37 38 39 40 41 42 43 44 45 46 47 48 49 50

000
ASUS43 KGRB 060910
RWRGRB

NORTH-CENTRAL AND NORTHEAST WISCONSIN REGIONAL WEATHER ROUNDUP
NATIONAL WEATHER SERVICE GREEN BAY WI
400 AM CDT WED MAY 06 2015

WIZ005-009-010>012-018-019-061000-
NORTH CENTRAL WISCONSIN

CITY           SKY/WX    TMP DP  RH WIND       PRES   REMARKS
IRONWOOD       MOCLDY    54  27  35 SE5       30.15S
MANITOWISH WTR CLOUDY    51  29  42 S6        30.19F
ARBOR VITAE    CLOUDY    52  27  37 SE6       30.20S
EAGLE RIVER    CLOUDY    46  30  54 S5        30.21S
LAND O LAKES   MOCLDY    35  33  92 CALM      30.22S
RHINELANDER    CLOUDY    51  28  41 SE3       30.21F
PHILLIPS       CLOUDY    53  35  50 SE6       30.17F
ANTIGO         CLOUDY    49  34  55 SE10      30.21F
TOMAHAWK       CLOUDY    52  32  46 CALM      30.20F
MERRILL        LGT RAIN  52  37  57 S6        30.22R
$$

WIZ013-073-061000-
NORTHEAST WISCONSIN

CITY           SKY/WX    TMP DP  RH WIND       PRES   REMARKS
IRON MOUNTAIN  CLOUDY    38  33  82 CALM      30.21F
MARINETTE      CLOUDY    48  34  57 CALM      30.22R
OCONTO         CLOUDY    48  44  87 CALM      30.22R
$$

WIZ017-030-035>037-045-061000-
CENTRAL WISCONSIN

CITY           SKY/WX    TMP DP  RH WIND       PRES   REMARKS
MEDFORD        LGT RAIN  47  44  89 E8        30.18F
WAUSAU         LGT RAIN  48  43  82 E7        30.19F
MOSINEE        HVY RAIN  46  43  87 SE6       30.21S
MARSHFIELD     CLOUDY    51  47  86 SE10      30.17F
WISC RAPIDS    CLOUDY    51  46  83 E7        30.20F
STEVENS POINT  RAIN      50  42  76 E3        30.21S
WAUPACA        CLOUDY    54  42  63 CALM      30.21S
SHAWANO        CLOUDY    53  44  71 CALM      30.22S
CLINTONVILLE   CLOUDY    52  39  62 N3        30.21F
$$

WIZ038-039-048-051-061000-
FOX VALLEY

CITY           SKY/WX    TMP DP  RH WIND       PRES   REMARKS
NWS GREEN BAY  CLOUDY    52  42  69 CALM      30.21F
APPLETON       CLOUDY    52  37  58 E5        30.21S
OSHKOSH        CLOUDY    50  43  77 SE5       30.20S
FOND DU LAC    CLOUDY    49  43  80 E3        30.19F
$$

WIZ022-050-052-061000-
EAST CENTRAL WISCONSIN

CITY           SKY/WX    TMP DP  RH WIND       PRES   REMARKS
STURGEON BAY   CLOUDY    48  30  49 SE5       30.25R
MANITOWOC      CLOUDY    48  44  86 E5        30.22F
SHEBOYGAN      CLOUDY    46  42  86 E3        30.21F
$$

LMZ563-521-522-541>543-061000-
LAKESHORE

STATION/POSITION TIME  TEMP    WIND        PRES    VSBY  WAVE
                       AIR SEA DIR/SP/G                  HT/PER
                 (UTC) (F)     (DEG/KT/KT) (MB)    (MI)  (FT/S)
SHEBOYGAN LKSHOR 0900   44      70/  5/  6 1023.6F
KEWAUNEE LKSHORE 0900   44      40/  1/  3 1022.7S
NORTHPORT PIER   0900   44     120/  4/  4 1023.4F
SISTER BAY LKSHO 0900   47        CALM       N/A
CHAMBERS ISLAND  0900   46      80/  2/  4 1023.4S
MENOMINEE LKSHOR 0900   49      20/  3/  4 1023.7R
$$


USA.gov is the U.S. government's official web portal to all federal, state and local government web resources and services.